This demonstration page uses our WeatherBlox Daily Observations layout. Learn more.

Left ArrowRight Arrow

39.12711, -84.51439

Hourly Observations for October 8, 2018

Temp ( °F °C ) Dew Point ( °F °C ) Humidity (%) Winds ( mph kmh ) Pressure ( in mb ) Visibility ( mi km ) Precip ( " mm )
12:03 am 00:03 Clear with Mist and Fog 70 21.1 70 21.1 100 100 N N/A 30.15 1021 2 3 N/A
12:27 am 00:27 Clear with Mist and Fog 71 21.7 71 21.7 100 100 N N/A 30.15 1021 4 6 N/A
12:51 am 00:51 Clear with Mist and Fog 70 21 70 21 100 100 N N/A 30.15 1021 3 4 N/A
12:53 am 00:53 Clear with Mist and Fog 70 21.1 70 21.1 100 100 N N/A 30.16 1022 3 4 N/A
1:00 am 01:00 Clear with Mist and Fog 69 20.6 69 20.6 100 100 N N/A 30.15 1021 4 6 N/A
1:30 am 01:30 Clear with Mist and Fog 70 21.1 70 21.1 100 100 N N/A 30.15 1021 2 3 N/A
1:41 am 01:41 Clear with Fog 69 20.6 69 20.6 100 100 N N/A 30.15 1021 1 1 N/A
1:53 am 01:53 Clear with Mist and Fog 69 20.6 69 20.6 100 100 N N/A 30.16 1021 1 1 N/A
2:10 am 02:10 Clear with Mist and Fog 69 20.6 69 20.6 100 100 N N/A 30.15 1021 2 3 N/A
2:32 am 02:32 Clear with Mist and Fog 70 21.1 70 21.1 100 100 N N/A 30.15 1021 3 5 N/A
2:53 am 02:53 Clear with Mist and Fog 68 20 68 20 100 100 N N/A 30.16 1021 1 2 N/A
3:00 am 03:00 Clear with Fog 69 20.6 69 20.6 100 100 N N/A 30.15 1021 0 0 N/A
3:14 am 03:14 Mostly Cloudy with Fog 68 20 68 20 100 100 N N/A 30.15 1021 1 1 N/A
3:17 am 03:17 Clear with Mist and Fog 68 20 68 20 100 100 N N/A 30.15 1021 1 2 N/A
3:20 am 03:20 Clear with Mist and Fog 68 20 68 20 100 100 N N/A 30.15 1021 3 5 N/A
3:23 am 03:23 Mostly Clear with Mist and Fog 68 20 68 20 100 100 N N/A 30.15 1021 3 4 N/A
3:38 am 03:38 Mostly Cloudy with Mist and Fog 68 20 68 20 100 100 N N/A 30.15 1021 1 2 N/A
3:53 am 03:53 Mostly Cloudy with Fog 67 19.4 67 19.4 100 100 N N/A 30.15 1021 0 0 N/A
4:08 am 04:08 Clear with Mist and Fog 68 20 68 20 100 100 N N/A 30.12 1020 1 2 N/A
4:11 am 04:11 Mostly Cloudy with Mist and Fog 67 19.4 67 19.4 100 100 N N/A 30.12 1020 1 1 N/A
4:26 am 04:26 Clear with Fog 67 19.4 67 19.4 100 100 N N/A 30.12 1020 1 1 N/A
4:33 am 04:33 Clear with Mist and Fog 67 19.4 67 19.4 100 100 N N/A 30.12 1020 3 4 N/A
4:40 am 04:40 Clear with Mist and Fog 68 20 68 20 100 100 N N/A 30.12 1020 4 6 N/A
4:48 am 04:48 Clear with Mist and Fog 66 19 66 19 100 100 N N/A 30.15 1021 3 4 N/A
4:53 am 04:53 Clear with Mist and Fog 68 20 68 20 100 100 N N/A 30.15 1021 4 6 N/A
5:01 am 05:01 Mostly Clear with Mist and Fog 66 18.9 66 18.9 100 100 ESE 3 6 30.12 1020 3 4 N/A
5:15 am 05:15 Mostly Clear with Mist and Fog 67 19.4 67 19.4 100 100 N N/A 30.12 1020 3 5 N/A
5:18 am 05:18 Partly Cloudy with Mist and Fog 68 20 68 20 100 100 N N/A 30.12 1020 2 3 N/A
5:21 am 05:21 Mostly Cloudy with Mist and Fog 67 19.4 67 19.4 100 100 N N/A 30.15 1021 1 1 N/A
5:25 am 05:25 Mostly Cloudy with Fog 67 19.4 67 19.4 100 100 N N/A 30.15 1021 0 0 N/A
5:40 am 05:40 Mostly Cloudy with Fog 67 19.4 67 19.4 100 100 N N/A 30.15 1021 0 0 N/A
5:49 am 05:49 Mostly Cloudy with Mist and Fog 66 19 66 19 100 100 N N/A 30.15 1021 1 2 N/A
5:50 am 05:50 Cloudy with Mist and Fog 67 19.4 67 19.4 100 100 N N/A 30.15 1021 1 2 N/A
5:57 am 05:57 Mostly Cloudy with Mist and Fog 66 18.9 66 18.9 100 100 N N/A 30.15 1021 3 5 N/A
6:08 am 06:08 Mostly Cloudy with Mist and Fog 66 18.9 66 18.9 100 100 N N/A 30.15 1021 2 3 N/A
6:23 am 06:23 Mostly Cloudy with Fog 67 19.4 67 19.4 100 100 N N/A 30.15 1021 0 0 N/A
6:46 am 06:46 Mostly Cloudy with Mist and Fog 67 19.4 67 19.4 100 100 N N/A 30.15 1021 1 2 N/A
6:53 am 06:53 Cloudy with Mist and Fog 66 18.9 66 18.9 100 100 N N/A 30.16 1021 1 2 N/A
7:43 am 07:43 Mostly Cloudy with Patchy Fog 66 18.9 66 18.9 100 100 N N/A 30.15 1021 2 3 N/A
7:53 am 07:53 Cloudy with Patchy Fog 66 18.9 66 18.9 100 100 N N/A 30.17 1022 1 2 N/A
8:53 am 08:53 Mostly Cloudy with Patchy Fog 68 20 68 20 100 100 N N/A 30.19 1022 2 3 N/A
9:12 am 09:12 Mostly Cloudy with Patchy Fog 69 20.6 69 20.6 100 100 N N/A 30.18 1022 1 2 N/A
9:22 am 09:22 Mostly Cloudy with Patchy Fog 69 20.6 69 20.6 100 100 N N/A 30.18 1022 2 3 N/A
9:31 am 09:31 Partly Cloudy with Mist and Fog 69 20.6 69 20.6 100 100 N N/A 30.18 1022 6 10 N/A
9:53 am 09:53 Mostly Sunny 72 22.2 72 22.2 100 100 N N/A 30.19 1022 10 16 N/A
10:53 am 10:53 Sunny 79 26.1 74 23.3 85 85 S 3 6 30.19 1023 10 16 N/A
11:53 am 11:53 Sunny 82 27.8 73 22.8 74 74 S 3 6 30.19 1022 10 16 N/A
12:53 pm 12:53 Partly Cloudy 85 29.4 72 22.2 65 65 S 5 7 30.18 1022 10 16 N/A
1:53 pm 13:53 Mostly Cloudy 86 30 71 21.7 61 61 S 7 11 30.16 1021 10 16 N/A
2:53 pm 14:53 Mostly Cloudy 87 30.6 70 21.1 57 57 VRB 3 6 30.13 1020 10 16 N/A
3:53 pm 15:53 Mostly Cloudy 86 30 71 21.7 61 61 S 9 15 30.13 1020 10 16 N/A
4:53 pm 16:53 Mostly Cloudy 87 30.6 71 21.7 59 59 S 7 11 30.12 1020 10 16 N/A
5:53 pm 17:53 Mostly Sunny 82 27.8 71 21.7 69 69 SSE 3 6 30.12 1020 10 16 N/A
6:53 pm 18:53 Mostly Cloudy 79 26.1 75 23.9 88 88 N N/A 30.13 1020 10 16 N/A
7:53 pm 19:53 Mostly Clear 75 23.9 73 22.8 94 94 N N/A 30.13 1020 10 16 N/A
8:53 pm 20:53 Clear 74 23.3 73 22.8 97 97 N N/A 30.14 1021 10 16 N/A
9:53 pm 21:53 Clear 72 22.2 72 22.2 100 100 N N/A 30.14 1021 9 14 N/A
10:53 pm 22:53 Clear 71 21.7 71 21.7 100 100 N N/A 30.14 1021 8 13 N/A
11:53 pm 23:53 Clear 71 21.7 71 21.7 100 100 N N/A 30.14 1021 7 11 N/A

Powered by AerisWeather